Regional Weather Roundup
Issued by NWS

Home | Current Version | Previous Version | Graphics & Text | Print | Product List | Glossary On
Versions: 1 2 3 4 5 6 7 8 9 10 11 12 13 14 15 16 17 18 19 20 21 22 23 24 25 26 27 28 29 30 31 32 33 34 35 36 37 38 39 40 41 42 43 44 45 46 47 48 49 50
000
ASUS45 KTFX 290219
RWRMT
MONTANA HOURLY WEATHER ROUNDUP
NATIONAL WEATHER SERVICE GREAT FALLS MT
819 PM MDT MON JUL 28 2014

NOTE: "FAIR" INDICATES FEW OR NO CLOUDS BELOW 12000 FEET WITH NO
SIGNIFICANT WEATHER AND/OR OBSTRUCTIONS TO VISIBILITY.

* THESE STATIONS ARE NOT UNDER NWS QUALITY CONTROL. THEY DO NOT
   REPORT WEATHER SUCH AS PRECIPITATION OR FOG.

MTZ001>007-043-290300-
WEST OF THE DIVIDE
CITY           SKY/WX    TMP DP  RH WIND       PRES   REMARKS
KALISPELL      CLEAR     91  41  17 CALM      30.09F
MISSOULA       PTCLDY    90  37  15 N16G25    30.08S
BUTTE          CLOUDY    81  39  22 S13       30.27R
MULLAN PASS    FAIR      77  39  26 N3        30.31F
* LINCOLN      N/A       86  40  20 E4G9       N/A
* LOOKOUT PASS N/A       83  42  23 VRB5       N/A
* POLSON       N/A       82  42  24 NW2        N/A
* RONAN APT    CLEAR     84  54  36 N5         N/A
* SEELEY LAKE  N/A       89  40  18 N8G13      N/A
* THOMP F APT  CLEAR     73  36  26 NW6G19     N/A
* YAAK HILL    N/A       99  46  16 N1         N/A
$$

MTZ008-052>055-290300-
SOUTHWEST MONTANA
CITY           SKY/WX    TMP DP  RH WIND       PRES   REMARKS
BOZEMAN        CLOUDY    81  48  32 S6        30.19S
DILLON         CLOUDY    75  45  34 N9        30.25R
W YELLOWSTONE  CLOUDY    70  39  32 N7        30.37R
* THREE FORKS  CLOUDY    82  61  49 N/A        N/A   HI  83
* BOULDER HILL N/A       79  41  26 S3         N/A
* MONIDA PASS  N/A       68  41  38 W11G16     N/A
* RAYNOLDS PAS N/A       71  68  90 NW14G24    N/A
* WHITEHALL    N/A       85  42  22 S1         N/A
* WISE RIVER   N/A       78  51  39 SW7G15     N/A
$$

MTZ009>010-012-014-046-048-049-054-290300-
EAST SLOPES AND CENTRAL MONTANA
CITY           SKY/WX    TMP DP  RH WIND       PRES   REMARKS
CUT BANK       PTCLDY    86  41  20 E7        30.16F
GREAT FALLS    MOCLDY    84  43  24 N7        30.12S
HELENA         MOCLDY    88  43  21 E7        30.11S
MALMSTROM AFB  MOCLDY    86  39  19 NE9       30.13R
* CONRAD       MOCLDY    81  50  34 N5         N/A
* DEARBORN     N/A       88  42  20 N10        N/A
* EAST GLACIER N/A       79  49  35 SE4        N/A
* ROGERS PASS  N/A       76  45  33 SW2        N/A
* SAINT MARY   N/A       78  52  40 N3G9       N/A
* SWEET GRASS  N/A       85  42  22 E11G17     N/A
* WHITE SULPH  N/A       80  40  24 E4G11      N/A
$$

MTZ011-013-016-021-035-040-045-047-050-051-290300-
NORTH CENTRAL MONTANA
CITY           SKY/WX    TMP DP  RH WIND       PRES   REMARKS
HAVRE          MOCLDY    86  43  22 E22G28    30.12R
LEWISTOWN      CLOUDY    82  41  23 E14       30.20S
* FORT BENTON  MOCLDY    90  39  17 S5G21     30.10R
* CHESTER      N/A       87  40  19 E13G20     N/A
* DENTON       N/A       87  43  21 E14        N/A
* GEYSER       N/A       86  42  21 SE10       N/A
* JUDITH GAP   N/A       80  44  28 S6         N/A
* LOMA         N/A       90  39  17 NE13       N/A
$$

MTZ017>020-022>027-061-062-290300-
NORTHEAST MONTANA
CITY           SKY/WX    TMP DP  RH WIND       PRES   REMARKS
GLASGOW        CLEAR     82  46  28 E9        30.17S
GLENDIVE       PTCLDY    77  48  36 NE7       30.21S
JORDAN         MOCLDY    84  43  24 E13       30.18R
SIDNEY         CLEAR     77  52  42 E7        30.20F
WOLF POINT     CLEAR     82  46  28 E12       30.18S
* BEAVER HILL  N/A       75  54  48 E8         N/A
* CIRCLE       N/A       81  51  35 E9         N/A
* LINDSAY DVD  N/A       76  50  40 NE6        N/A
$$

MTZ028>042-056>058-290300-
SOUTHCENTRAL AND SOUTHEAST MONTANA
CITY           SKY/WX    TMP DP  RH WIND       PRES   REMARKS
BAKER          PTCLDY    75  52  45 E10       30.23S
BILLINGS       CLOUDY    84  46  26 NE16      30.17R
LIVINGSTON     CLOUDY    81  43  26 NE6       30.22S
MILES CITY     PTCLDY    82  46  28 NE9       30.18R
* LAUREL APT   CLOUDY    84  46  26 N9         N/A
* ROUNDUP APT  CLOUDY    86  43  22 E7         N/A
* ALZADA       N/A       77  50  39 E8         N/A
* HYSHAM       N/A       84  44  25 E6G13      N/A
* LAME DEER    N/A       79  44  29 NE9        N/A
* REED POINT   N/A       85  50  30 W3         N/A
* ROSCOE HILL  N/A       75  44  33 SW6        N/A
$$

REGIONAL REPORTS...DAKOTAS
CITY           SKY/WX    TMP DP  RH WIND       PRES   REMARKS
WILLISTON      CLEAR     77  52  42 E7        30.20S
DICKINSON      CLEAR     66  55  68 E6        30.23S
CROSBY         N/A       66  64  93 E6        30.22S
TIOGA          CLOUDY    66  66 100 SE6       30.26S
WATFORD CITY   CLEAR     70  57  64 SE8       30.20S
BISMARCK       CLEAR     70  54  57 E6        30.23S
GRAND FORKS    FAIR      66  61  84 N3        30.18S
FARGO          CLEAR     68  55  63 W5        30.18S
BUFFALO SD     CLEAR     72  54  53 E9        30.18S
RAPID CITY     FAIR      70  54  57 E8        30.23S
$$

REGIONAL REPORTS...WYOMING/IDAHO/WASHINGTON
CITY           SKY/WX    TMP DP  RH WIND       PRES   REMARKS
GILLETTE       CLEAR     79  48  34 NE14      30.23R
SHERIDAN       MOCLDY    82  46  28 NE5       30.19R
YELLOWSTONE LA CLOUDY    64  37  37 CALM      30.49S
SALMON         CLOUDY    81  48  32 SW12      30.12R
MULLAN PASS    FAIR      77  39  26 N3        30.31S
SAND POINT     CLEAR     81  59  47 CALM      30.03F HI  81
SPOKANE        FAIR      97  36  12 NW5       30.03S
$$

REGIONAL REPORTS...ALBERTA
CITY           SKY/WX    TMP DP  RH WIND       PRES   REMARKS
CALGARY        FAIR      79  55  44 S12       30.17S
LETHBRIDGE     MOCLDY    79  63  58 E3        30.15S
MEDICINE HAT   MOCLDY    84  46  26 E5        30.12F
EDMONTON       FAIR      77  64  64 E10       30.14S
WATERTON GATE  N/A       79  48  34 N3         N/A
CARDSTON       N/A       77  61  58 NE6        N/A
MILK RIVER     N/A       79  46  31 NE9        N/A
$$

REGIONAL REPORTS...SASKATCHEWAN
CITY           SKY/WX    TMP DP  RH WIND       PRES   REMARKS
SWIFT CURRENT  CLEAR     72  55  55 E12       30.22S
REGINA         FAIR      73  59  62 N5        30.21F
VAL MARIE      N/A       68  57  68 E8         N/A
ASSINIBOIA     N/A       72  59  64 NE6        N/A
CORONACH       N/A       70  52  53 NW5        N/A

$$




USA.gov is the U.S. government's official web portal to all federal, state and local government web resources and services.